Regional Weather Roundup
Issued by NWS

Home | Current Version | Previous Version | Graphics & Text | Print | Product List | Glossary On
Versions: 1 2 3 4 5 6 7 8 9 10 11 12 13 14 15 16 17 18 19 20 21 22 23 24 25 26 27 28 29 30 31 32 33 34 35 36 37 38 39 40 41 42 43 44 45 46 47 48 49 50
752
ASUS43 KOAX 261610
RWRNE

WEATHER ROUNDUP FOR NEBRASKA
NATIONAL WEATHER SERVICE OMAHA NE
1100 AM CDT FRI AUG 26 2016

NOTES: SATELLITE DATA IS BEING USED TO AUGMENT CLOUD COVER ABOVE
       12000 FEET.
       "FAIR" INDICATES FEW OR NO CLOUDS BELOW 12,000 FEET WITH NO
       SIGNIFICANT WEATHER AND/OR OBSTRUCTIONS TO VISIBILITY.

  * THESE STATIONS DO NOT REPORT WEATHER SUCH AS RAIN...SNOW OR FOG.

NEZ001>004-019>022-054>056-261700-
NEBRASKA PANHANDLE

CITY           SKY/WX    TMP DP  RH WIND       PRES   REMARKS
SCOTTSBLUFF    MOSUNNY   61  55  81 NW5       30.12S
ALLIANCE       LGT RAIN  57  53  86 SE14      30.12F
CHADRON        CLOUDY    58  55  90 N6        30.13S
KIMBALL        LGT RAIN  56  56 100 SE14      30.15F
SIDNEY         HVY RAIN  58  56  93 S14       30.17R FOG
$$

NEZ057>060-069>072-079>082-261700-
SOUTHWEST NEBRASKA

CITY           SKY/WX    TMP DP  RH WIND       PRES   REMARKS
NORTH PLATTE   CLOUDY    68  57  68 VRB7      30.15F
IMPERIAL       CLOUDY    68  55  63 SE17      30.14F
LEXINGTON      CLOUDY    65  57  75 E7        30.16F
MCCOOK         CLOUDY    66  59  78 E8        30.15F
OGALLALA       MOSUNNY   68  54  60 S14G20    30.15S
$$

NEZ005>010-023>029-035>040-094-261700-
NORTH CENTRAL NEBRASKA

CITY           SKY/WX    TMP DP  RH WIND       PRES   REMARKS
VALENTINE      CLOUDY    66  53  63 S13       30.17F
AINSWORTH      MOSUNNY   68  56  65 S8        30.17F
BROKEN BOW     CLOUDY    65  57  75 SE8       30.16F
O`NEILL        CLOUDY    71  53  52 SE8       30.17S
ORD            CLOUDY    68  53  58 E9        30.15F
THEDFORD       CLOUDY    68  54  61 SE10G17   30.17F
$$

NEZ041-046>049-061>064-073>077-083>087-261700-
SOUTH CENTRAL NEBRASKA

CITY           SKY/WX    TMP DP  RH WIND       PRES   REMARKS
GRAND ISLAND   PTSUNNY   67  57  70 E9        30.15F
AURORA         CLOUDY    65  62  89 E7        30.13F
HASTINGS       CLOUDY    66  57  72 E10       30.14F
HEBRON         CLOUDY    67  62  84 E7        30.12R
HOLDREGE       HAZE      65  59  82 E8        30.15S VSB 1
KEARNEY *      CLOUDY    66  57  72 E6        30.15R
YORK           LGT RAIN  66  59  77 E13       30.13F
$$

NEZ011>018-030>034-042>045-261700-
NORTHEAST NEBRASKA

CITY           SKY/WX    TMP DP  RH WIND       PRES   REMARKS
NORFOLK        CLOUDY    65  58  78 SE6       30.16S
ALBION         CLOUDY    67  57  71 SE10      30.16F
BLAIR          CLOUDY    66  61  82 E5        30.14S
FREMONT        CLOUDY    65  60  84 NE5       30.16R
TEKAMAH        CLOUDY    66  59  78 CALM      30.15S
WAYNE          CLOUDY    67  61  81 SE8       30.17S
$$

NEZ050>053-065>068-078-088>093-261700-
SOUTHEAST NEBRASKA

CITY           SKY/WX    TMP DP  RH WIND       PRES   REMARKS
LINCOLN        CLOUDY    69  61  75 NE9       30.12F
OMAHA EPPLEY   CLOUDY    69  60  73 E10       30.13F
BEATRICE       CLOUDY    64  61  89 E12       30.12R
FALLS CITY     CLOUDY    67  64  90 E8        30.11F
NEBRASKA CITY  LGT RAIN  63  63 100 E10       30.13S
PLATTSMOUTH    CLOUDY    65  61  86 E10       30.13F
$$

NEZ044-045-051>053-067-261700-
OMAHA AREA

CITY           SKY/WX    TMP DP  RH WIND       PRES   REMARKS
OMAHA EPPLEY   CLOUDY    69  60  73 E10       30.13F
BLAIR          CLOUDY    66  61  82 E5        30.14S
FREMONT        CLOUDY    65  60  84 NE5       30.16R
MILLARD        PTSUNNY   67  61  78 SE10      30.13F
OFFUTT AFB     CLOUDY    66  62  86 E10       30.13S
PLATTSMOUTH    CLOUDY    65  61  86 E10       30.13F
WAHOO          FAIR      66  61  84 E6        30.14S
$$




USA.gov is the U.S. government's official web portal to all federal, state and local government web resources and services.